FENGYUN 1C DEB, 37061

Orbit data source: Space-Track

FENGYUN 1C DEB, 37061 is space debris in SSO originally from a launch on Mon, 10 May 1999 UTC launched from the Taiyaun Space Center, China (TSC). Fengyun 1C debris stems from the Chinese weather satellite Fengyun-1C, which was intentionally destroyed by a Chinese anti-satellite missile in 2007. This event dramatically increased the amount of space debris, with thousands of trackable fragments posing hazards to satellites and human spaceflight. The Fengyun 1C debris cloud has become a focal point in discussions about space sustainability and the need for international regulations to prevent the creation of new debris.

Loading next visibility...
Identifier
37061, 1999-025EEV
Orbit
SSO
Country
Flag of CNCN / PRC
Related business
Manufacturer
Unknown
Mission
Spacecraft
Bus & Motor
Unknown
Mass
Unknown
Launch date (UTC)
1999-05-10 (27 years ago)
Launch vehicle
Unknown
Launch site
Taiyaun Space Center, China (TSC)
Object type
Payload
Rocket body
Debris
Shape & HBR
Unknown shape, 0.1 m
Radar Cross Section
Small (<0.1 m²)

Expand to show TLE details & history
Last TLE update: 2 days ago

TLE from 2 days ago
0 FENGYUN 1C DEB
1 37061U 99025EEV 26122.37025179  .00004754  00000-0  24141-2 0  9993
2 37061  98.0591 159.6943 0796242  16.8947 345.7132 13.15209725100026
Epoch: 2026-05-02T08:53Z
TLE epoch observation values (Epoch: 2026-05-02T08:53:09.754Z)
Latitude
-0.00004°
Longitude
166.11454°
Altitude
624.09 km
Speed
7.831 km/s
True Right ascension
10h 38m 46s
True Declination
0° 00' 00"
Sunlit
Object was in full shadow at epoch
Visualization orbit readout
Latitude
Unknown
Longitude
Unknown
Altitude
Unknown
Speed
Unknown
Apparent Right ascension
Unknown
Apparent Declination
Unknown
Sunlit
N/A
Visualization observer readout
Local Sidereal Time
19:00:48
Azimuth
Unknown
Elevation
Unknown
Doppler factor
Unknown
Orbital elements
Apogee altitude
1,803.747 km
Perigee altitude
596.89 km
Semi-major axis
7,578.455 km
Eccentricity
0.07962
Inclination
98.0591°
RAAN
159.6943°
Arg. of periapsis
16.8947°
True anomaly
343.22315°
Mean anomaly
345.7132°
Eccentric anomaly
344.49353°
Mean motion
3.28982 °/min
Orbital period
109.43 mins
BSTAR
0.0024141
Loading maneuver chart data...
Computing Atmospheric mass density...

Documentation

Showing up to 5 results
|